User: anonymous
Location: Darlington Observatory
(36.4817°N, 105.8156°W)
Time: 04:06:47
(UTC-06:00)
Language:

Cosmos 2278 Rocket - Orbit

View from above orbital plane
View from above orbital plane
View from above satellite
View from above satellite

Ground track
Ground track

The orbit data is extracted from the following two-line orbital elements,

1 23088U 94023B   14107.81663954 -.00000177  00000-0 -67487-4 0  9043
2 23088 070.9996 188.9917 0002114 012.7928 123.6088 14.14563913 32014
Epoch (UTC): 17 April 2014 19:35:57
Eccentricity: 0.0002114
inclination: 70.9996°
perigee height: 842 km
apogee height: 845 km
right ascension of ascending node: 188.9917°
argument of perigee: 12.7928°
revolutions per day: 14.14563913
mean anomaly at epoch: 123.6088°
orbit number at epoch: 3201

The dashed part of the orbit path shows where the satellite is in the earth's shadow,  

DLR